Wind_Speed
7 8 10 8 8 9 10 9 9 10 10 12 12 10 10 10 9 8 8 11 8 3 4 5 10 13 9 6 9 4 2 0 1 4 4 4 4 5 4 4 8 10 10 6 4 5 10 8 3 6 4 5 5 6
8 8 9 9 10 10 10 11 10 10 11 11 11 12 11 11 10 9 5 5 10 7 4 17 22 25 23 21 9 4 4 4 4 2 3 3 3 2 3 4 1 4 7 3 10 9 3 6 6 6 7 14 10 9
11 9 10 11 10 11 13 13 13 12 11 11 11 11 12 13 12 10 9 11 7 4 6 6 9 21 24 34 32 10 8 12 7 7 7 6 13 4 11 7 6 5 5 4 4 7 16 15 11 12 16 16 12 10
12 12 11 11 12 12 13 14 15 15 14 12 12 11 12 12 12 13 11 11 5 4 4 6 5 11 10 12 18 29 27 17 5 2 7 5 5 6 5 7 5 2 4 6 16 14 21 18 18 15 9 14 21 23
14 14 13 13 13 13 14 15 15 15 16 16 16 14 13 12 13 14 18 20 21 7 3 7 23 41 33 28 33 28 21 13 6 8 5 6 3 3 3 3 12 7 12 12 21 17 19 16 12 12 19 22 21 24
14 14 15 16 15 16 16 15 16 16 16 16 17 17 17 13 11 9 3 3 4 21 3 3 4 6 20 14 13 14 13 6 8 4 4 3 4 5 7 13 12 14 16 18 23 22 17 19 16 15 17 20 21 20
15 15 16 17 18 18 17 17 17 17 17 17 17 18 18 16 11 5 4 2 5 3 2 5 5 4 5 3 3 2 3 4 5 5 6 8 7 7 6 16 15 15 16 17 16 14 18 18 15 13 15 19 21 19
16 17 18 18 19 19 18 18 19 19 19 18 18 18 18 18 17 13 28 28 27 9 2 4 5 4 4 3 3 1 2 2 3 3 1 3 2 2 6 16 18 14 11 8 7 8 10 11 8 11 12 11 12 13
18 19 19 20 20 21 20 20 19 19 20 19 19 18 18 8 5 7 5 5 10 10 3 3 3 4 1 2 2 2 2 3 3 6 5 3 4 7 5 5 6 7 5 8 8 6 8 7 9 12 13 14 12 11
20 20 21 21 22 22 22 21 21 20 18 19 15 4 3 5 6 10 3 2 3 4 4 4 3 8 2 1 2 1 3 4 3 4 3 4 6 6 3 0 4 9 9 12 13 14 14 15 13 11 12 13 14 13
21 21 22 22 23 23 23 22 20 19 19 9 4 3 7 7 3 2 3 2 2 3 4 4 9 11 2 4 5 5 3 2 2 5 6 3 4 3 1 2 1 0 4 6 10 17 14 14 15 15 15 15 14 13
23 23 24 24 24 24 24 22 21 20 12 7 6 6 4 1 2 3 4 2 4 5 3 4 5 4 3 2 3 3 3 2 6 1 3 3 3 5 6 9 10 7 3 4 8 11 15 17 14 14 12 13 11 16
25 25 25 25 25 25 25 23 22 23 21 16 7 4 3 3 6 6 6 3 3 3 3 3 4 3 3 3 3 2 4 3 2 2 2 3 3 3 7 7 7 7 7 10 13 17 17 18 18 12 12 15 16 16
26 26 25 25 25 25 24 23 22 23 14 4 6 8 6 4 4 5 5 5 5 2 2 3 3 3 3 1 3 3 5 2 3 2 5 3 10 10 11 8 4 8 7 9 10 10 12 12 12 19 17 16 16 14
25 25 24 25 25 25 24 22 23 22 7 5 5 6 7 4 2 3 2 2 4 1 1 1 2 1 2 3 3 2 5 5 5 5 4 4 9 10 8 7 7 10 9 7 9 9 11 12 10 14 22 22 20 19
23 23 25 25 25 25 23 21 21 16 5 4 6 3 1 2 4 1 3 5 2 2 1 1 3 3 5 4 3 8 5 6 11 6 5 4 6 7 8 10 9 9 10 10 11 14 14 13 12 18 27 21 20 19
22 26 23 22 23 22 20 19 9 6 4 4 3 2 3 3 7 7 5 6 5 3 3 2 4 9 2 3 4 4 6 12 10 6 4 7 8 13 15 10 9 10 11 9 12 16 17 23 21 18 17 24 20 22
26 26 24 23 23 22 19 11 4 4 7 4 3 4 3 3 10 8 4 4 4 4 3 6 3 6 7 5 5 8 8 9 8 9 10 12 12 12 10 13 14 15 12 16 18 21 19 14 12 12 20 23 22 20
26 24 23 25 20 7 4 6 6 4 6 3 3 2 3 4 7 10 5 6 8 3 1 2 6 4 6 6 12 12 10 9 11 13 11 13 13 13 16 18 18 16 16 18 17 11 19 22 20 23 23 22 13 21
25 26 26 25 20 5 3 3 7 3 4 4 1 2 5 5 6 6 8 8 4 3 5 5 10 13 13 14 14 13 12 12 10 11 13 12 13 16 12 12 9 19 18 18 18 22 19 18 23 22 20 19 14 11
25 27 24 23 15 15 4 3 5 4 2 3 2 2 3 2 2 5 6 3 3 3 4 7 13 15 19 16 21 15 13 12 12 13 14 13 13 14 13 20 23 20 10 10 11 12 17 11 22 23 20 20 21 23
19 18 12 16 7 7 5 9 3 2 2 2 2 2 2 2 4 4 2 2 4 8 7 11 14 14 14 17 16 20 21 24 24 18 25 23 14 12 12 12 9 12 12 12 9 11 13 21 24 23 21 21 23 23
20 11 8 10 7 6 5 11 4 5 4 4 2 1 3 4 4 1 2 4 5 9 13 13 16 25 16 23 23 23 27 22 13 13 13 12 18 22 19 21 23 13 13 15 24 22 19 28 27 24 23 21 19 19
16 6 6 5 8 5 4 4 3 3 2 2 4 4 4 4 1 2 4 4 12 11 10 15 11 9 10 9 10 12 18 23 12 15 22 12 11 13 23 23 25 26 27 27 24 24 23 25 22 20 19 17 15 12
5 7 5 6 5 5 6 5 4 3 6 4 5 4 4 2 2 3 4 6 11 12 12 11 9 7 9 12 11 12 28 20 11 13 18 24 19 18 13 23 26 28 26 22 16 18 18 17 20 19 16 16 12 12
9 8 6 8 4 6 6 6 6 7 4 3 7 3 1 3 3 6 5 12 11 9 10 10 10 10 9 11 11 11 16 27 22 11 16 23 22 14 14 15 14 16 20 20 19 18 19 20 19 16 14 18 21 16
7 6 3 1 3 3 1 1 1 3 6 7 4 4 4 5 7 6 7 6 5 6 20 21 15 10 12 12 23 26 28 26 24 23 30 28 27 27 24 13 16 24 26 24 21 21 19 20 18 15 16 16 16 16
5 6 8 6 2 1 5 3 5 7 5 3 4 4 7 9 7 5 5 11 23 26 24 25 26 25 24 26 28 27 26 28 29 27 28 30 27 27 28 28 29 31 31 27 26 23 24 20 16 16 16 15 14 18
3 3 5 6 3 3 6 8 6 5 4 5 5 5 6 6 7 8 16 26 26 19 5 8 18 24 24 24 24 24 23 18 10 18 20 14 10 5 14 19 22 21 21 23 22 18 22 22 17 15 17 16 16 17
4 4 4 5 7 8 6 7 4 3 3 3 2 4 7 10 19 30 25 22 12 11 13 14 14 12 9 9 10 16 18 15 13 9 9 9 7 17 21 21 20 19 19 19 17 15 14 18 20 17 13 12 13 14
6 3 4 3 5 4 4 1 2 1 1 3 3 5 14 12 14 23 20 14 6 8 8 6 6 9 8 6 6 8 9 10 9 16 21 20 21 22 23 23 21 19 19 17 14 11 10 9 11 12 13 12 15 16
3 6 6 4 5 3 2 2 1 2 3 2 8 5 8 6 9 1 7 8 7 5 9 11 7 8 16 18 19 18 18 21 22 22 23 23 24 25 27 20 16 15 15 13 9 6 8 10 10 11 10 11 14 15
2 2 2 2 3 3 2 2 2 4 2 3 4 3 3 3 4 1 2 8 10 10 13 15 21 23 23 20 19 17 15 17 20 20 20 20 20 15 13 14 13 11 9 6 2 6 9 11 11 12 13 15 15 17
Wind_Direction
283 291 299 306 310 314 321 327 331 333 333 328 317 319 321 321 321 321 283 282 255 258 263 227 242 255 254 243 273 312 297 2 339 217 233 223 229 229 272 207 183 174 169 195 185 214 279 228 108 190 226 291 313 307
279 284 292 298 307 308 311 314 318 321 325 326 326 323 314 312 309 311 278 269 290 262 289 294 274 257 253 251 257 207 269 257 214 212 241 272 289 288 250 250 272 253 220 214 194 207 262 239 234 261 269 285 298 296
278 286 293 296 301 305 308 307 308 310 311 317 319 322 317 311 305 295 278 288 292 276 278 238 244 271 263 250 248 254 251 250 205 212 268 250 245 181 256 227 220 238 250 239 281 202 249 268 272 267 277 297 304 295
276 279 283 288 295 299 301 303 304 305 305 305 307 310 309 310 305 299 289 278 250 275 269 280 296 279 277 286 261 242 250 263 278 203 244 231 256 192 253 273 251 253 122 258 261 270 272 262 265 285 305 308 307 305
277 281 282 283 286 288 291 295 297 300 305 307 300 295 299 306 309 303 289 269 254 214 257 288 297 286 283 273 267 250 232 248 248 252 231 240 227 210 207 248 259 225 237 243 264 273 273 289 320 319 310 303 299 295
275 282 283 284 286 287 287 290 292 295 298 300 304 301 290 294 306 329 318 31 267 225 259 291 284 280 273 269 277 253 232 225 226 255 239 240 195 214 249 259 267 214 229 237 267 277 293 301 295 296 292 287 285 290
272 274 279 283 285 282 282 285 289 291 293 296 299 300 299 284 272 216 227 154 126 80 292 303 292 268 276 264 277 286 236 218 223 240 235 253 244 210 249 257 279 281 272 271 276 294 283 289 294 303 296 293 298 297
268 273 275 278 280 282 283 283 284 285 287 290 293 297 296 295 283 263 264 259 248 274 254 260 272 330 196 246 289 223 255 222 211 246 188 211 235 259 270 273 281 289 316 293 284 286 279 302 306 305 303 308 311 306
262 265 270 273 276 278 278 280 280 283 285 289 292 298 296 255 231 248 256 259 239 198 205 216 210 265 59 243 231 257 229 251 218 242 234 172 216 229 250 323 336 305 302 308 311 293 293 303 299 301 303 312 313 315
260 264 269 271 274 277 278 276 276 278 282 288 295 244 294 223 278 301 296 193 207 196 223 237 205 244 133 94 273 284 207 225 242 229 164 221 244 246 62 334 10 5 1 353 344 339 321 311 306 311 333 319 309 307
259 264 268 271 272 272 273 274 275 277 278 272 209 229 259 280 273 49 270 231 224 254 218 221 226 246 213 225 235 212 242 229 250 245 182 230 250 212 12 330 325 255 238 31 341 314 303 300 308 315 307 312 316 309
261 264 268 269 270 271 271 271 269 265 248 228 222 263 260 343 160 200 209 272 203 231 229 218 228 219 251 233 248 256 247 180 246 320 202 237 234 191 201 230 236 234 230 244 262 291 301 290 291 290 290 304 319 305
259 263 265 267 269 268 266 265 263 261 265 264 216 233 194 205 206 215 210 260 246 232 219 207 244 214 209 207 258 245 279 261 202 257 273 235 261 241 260 271 292 268 263 271 281 280 275 275 276 277 294 307 320 308
256 260 262 265 267 265 263 261 259 260 252 223 199 207 188 209 217 203 196 197 234 190 173 220 263 215 228 174 220 170 242 60 299 262 238 203 207 223 244 245 262 277 260 275 283 288 286 288 295 308 310 318 318 311
254 258 263 265 264 261 259 258 256 248 226 228 214 216 204 205 244 252 273 319 252 236 160 298 256 149 279 255 211 6 330 246 209 233 228 227 220 234 252 256 252 265 269 264 283 286 289 295 299 307 314 316 317 312
255 262 261 266 265 262 255 253 257 253 224 220 220 206 303 62 285 276 214 246 231 199 82 248 257 244 245 214 149 218 166 222 250 243 251 264 261 254 258 260 253 260 269 285 296 295 297 298 295 296 303 304 301 296
255 258 265 266 261 259 257 248 244 211 244 248 243 265 188 213 226 224 206 230 176 153 225 194 216 228 321 228 236 202 212 248 266 272 266 259 257 280 287 266 252 261 267 270 273 277 275 283 293 294 295 300 293 293
253 259 264 261 256 254 257 235 217 246 225 226 202 218 240 254 245 254 237 222 157 209 196 221 184 212 239 217 246 247 249 260 269 267 266 273 278 271 268 269 273 267 268 273 269 270 273 272 274 277 285 291 295 299
254 257 257 259 249 220 200 209 188 231 223 205 227 205 193 222 228 240 235 233 219 242 124 214 237 218 238 237 253 258 263 263 266 271 275 275 274 273 273 265 264 267 265 262 265 265 268 265 266 275 279 284 281 289
255 255 248 247 241 227 240 220 192 209 220 225 162 229 224 236 248 235 236 240 197 166 214 223 247 252 249 255 259 264 264 269 276 278 275 275 274 273 270 267 263 262 265 266 261 262 267 271 267 267 267 264 266 272
257 253 247 241 232 213 199 194 202 211 182 197 275 164 239 358 231 241 250 169 178 209 232 233 247 250 247 252 262 265 268 266 263 263 273 279 278 277 275 271 267 272 267 266 264 265 266 265 274 275 266 263 264 263
247 237 234 234 222 212 221 180 206 204 161 202 204 157 222 255 239 232 183 157 216 235 228 245 247 251 258 260 259 261 260 263 265 268 271 274 275 275 272 270 270 265 261 259 257 258 265 270 268 271 267 262 265 265
236 215 192 191 213 208 240 152 174 191 200 231 116 209 245 230 220 54 214 217 247 247 245 247 252 255 253 264 272 270 265 264 267 268 269 269 269 270 268 265 262 261 263 258 258 260 264 265 263 265 266 264 255 256
216 191 193 217 196 208 143 188 170 178 209 174 178 227 258 222 112 98 237 247 249 254 252 249 249 264 271 255 252 257 263 264 261 261 262 263 264 263 264 265 262 258 257 265 266 261 262 261 252 256 255 253 240 236
219 197 209 209 171 158 179 184 186 193 226 203 186 261 259 56 154 225 232 252 254 257 260 265 263 242 244 261 269 267 268 261 257 259 260 258 263 270 270 269 271 268 267 262 256 257 252 258 263 252 240 237 236 233
210 204 211 182 167 171 175 178 203 207 154 192 227 229 87 130 170 239 229 254 263 260 259 257 258 265 260 246 254 262 262 267 260 258 264 262 262 267 274 277 280 277 262 246 255 257 259 261 259 243 233 236 238 235
200 203 203 202 139 123 119 27 106 172 193 204 222 160 166 218 228 244 254 253 234 242 248 253 251 251 256 263 266 266 270 268 256 267 282 285 280 276 274 271 273 278 283 274 260 248 250 261 256 234 228 232 226 219
194 170 166 178 167 140 161 166 185 209 224 199 109 187 195 206 229 235 223 260 266 268 263 267 263 257 259 262 271 280 281 279 281 280 282 282 278 272 269 269 272 277 278 278 271 255 244 247 250 239 220 218 220 210
171 175 117 155 120 194 208 194 211 220 195 164 188 233 237 236 258 267 275 279 283 273 256 272 276 277 274 271 267 264 264 269 273 280 283 290 300 287 286 282 283 282 282 284 286 263 236 233 228 225 225 214 211 199
176 156 125 151 177 217 225 188 230 226 202 205 229 300 281 272 268 274 277 279 276 274 285 298 304 299 288 288 290 289 287 276 273 276 287 295 299 305 303 298 295 294 297 298 289 280 252 239 236 231 210 183 167 158
132 107 96 164 216 233 225 269 322 304 281 242 219 229 265 280 286 278 274 287 312 334 329 313 311 309 302 301 303 305 302 297 281 301 306 302 297 297 297 299 303 307 311 310 294 276 245 205 177 168 165 165 167 158
144 173 160 201 257 268 30 162 246 224 261 226 268 250 280 283 286 293 13 27 27 2 333 328 314 308 304 296 292 285 280 287 293 298 300 299 299 302 305 306 317 322 323 318 305 266 189 155 151 156 156 152 149 149
58 57 57 42 342 300 280 151 328 303 290 261 259 240 227 222 259 299 81 46 28 337 308 306 308 306 306 308 309 310 306 309 315 309 301 299 305 319 327 329 325 326 326 331 21 138 137 133 124 129 132 134 134 135
Height
860 861 864 861 861 861 861 859 857 855 855 855 854 852 852 851 849 849 846 846 846 838 830 831 830 828 825 826 826 821 823 825 827 824 815 808 816 800 793 788 802 796 808 816 811 810 790 741 748 747 726 721 718 719
859 859 858 859 858 858 857 858 856 854 853 852 851 851 849 849 848 847 845 843 843 840 827 823 822 822 822 822 822 821 816 818 819 822 820 814 809 809 800 792 792 785 771 774 774 760 741 742 732 726 725 721 723 722
857 854 856 856 854 855 855 855 855 852 850 849 849 848 848 847 845 845 842 840 839 836 823 818 811 809 810 811 814 815 810 807 810 807 805 798 794 794 779 784 779 778 763 764 762 744 739 731 726 721 719 717 715 714
853 853 852 852 852 851 851 852 851 850 847 846 845 844 845 844 842 841 840 838 838 837 830 814 805 805 804 804 805 805 803 803 802 805 801 799 788 782 771 766 766 760 762 761 737 734 725 725 719 717 717 714 710 705
850 851 849 848 848 847 847 848 847 846 845 843 842 842 841 840 839 836 833 830 831 834 826 813 806 800 794 793 792 792 796 797 797 798 795 785 784 781 773 771 757 758 755 746 714 722 715 714 717 718 712 710 706 701
845 844 845 846 843 844 844 842 843 843 841 840 839 837 837 836 835 833 828 824 823 826 824 812 800 792 787 786 786 785 788 792 792 787 784 774 769 775 762 746 734 738 734 730 717 718 719 715 715 713 709 703 697 694
839 841 841 841 840 840 838 839 838 838 838 837 835 833 833 831 831 831 830 827 824 825 825 818 807 790 785 784 781 779 780 782 782 777 769 767 766 767 752 736 731 728 729 725 723 720 718 713 709 709 705 698 693 688
834 836 835 834 837 835 834 833 834 834 834 831 832 829 828 825 824 822 819 819 821 825 825 823 812 801 784 784 785 780 779 778 773 767 766 764 761 757 741 728 724 724 724 722 721 719 713 711 710 705 701 694 689 684
828 829 829 830 830 830 828 829 829 828 829 828 825 824 823 820 818 811 811 812 814 819 820 814 813 812 783 782 782 780 778 772 766 759 758 757 753 743 732 734 734 732 728 726 722 719 716 712 706 702 696 688 682 677
821 822 824 824 824 823 823 823 825 825 823 823 824 822 820 812 811 812 807 807 807 805 804 800 797 789 786 785 785 782 772 766 759 755 753 747 736 731 736 736 733 731 727 726 721 716 712 707 702 696 687 684 681 675
815 815 816 816 817 818 818 818 819 819 820 819 819 817 810 810 810 809 813 806 800 794 787 782 779 777 779 780 773 771 766 765 767 751 747 751 745 737 731 730 728 727 726 722 725 720 713 706 697 691 687 683 676 671
807 808 809 809 810 810 811 811 812 814 813 813 813 811 809 808 810 814 808 808 802 794 778 774 773 774 774 772 767 763 757 760 753 754 742 743 734 727 727 724 719 718 717 715 716 712 706 701 697 692 686 678 672 667
800 801 801 802 802 802 803 804 805 805 807 807 806 802 800 805 800 795 806 799 796 782 776 774 773 769 766 766 765 764 753 742 745 741 733 745 733 725 722 721 718 715 713 711 707 703 700 698 692 687 681 672 667 663
792 794 794 794 794 794 795 796 798 799 801 795 791 789 794 795 786 787 786 782 773 775 773 768 770 767 763 769 764 770 757 758 762 747 748 725 721 720 714 712 711 709 706 704 700 697 695 690 683 676 673 667 665 660
784 785 786 785 785 786 787 788 789 791 790 785 781 776 783 776 780 780 781 776 768 768 769 769 766 767 771 766 767 764 766 762 748 739 727 718 711 710 709 707 706 704 701 697 693 690 686 682 677 669 665 663 660 655
775 777 775 776 777 777 779 780 781 783 777 774 769 770 780 785 782 782 778 771 763 764 765 765 763 766 762 759 767 763 764 761 719 718 713 710 708 706 704 701 699 697 694 688 683 680 677 674 670 666 660 657 655 652
767 766 767 768 769 770 772 775 776 774 770 763 759 764 762 767 760 758 756 754 754 759 761 762 762 757 753 752 754 747 745 712 708 709 705 703 702 698 694 693 691 688 684 680 677 674 671 667 664 662 656 648 649 645
757 758 760 760 762 763 765 767 768 762 757 763 762 759 757 753 748 747 748 747 751 752 750 750 746 748 740 748 739 714 711 704 702 701 697 693 691 690 687 684 680 678 675 672 669 666 663 662 659 653 649 643 639 636
749 750 752 754 758 758 757 757 758 755 755 757 752 748 746 742 741 738 738 738 738 739 742 743 737 735 728 721 710 704 701 700 695 689 687 684 682 680 676 674 671 669 666 662 659 656 653 651 647 642 640 638 634 629
741 743 745 747 751 751 748 747 748 748 753 744 744 745 737 734 730 731 731 731 735 740 737 731 719 711 707 699 693 691 689 687 686 684 678 674 672 669 667 665 662 657 654 652 649 647 644 640 635 634 631 629 627 623
733 733 737 740 740 741 740 741 738 737 737 739 742 738 737 738 735 728 727 724 731 729 726 712 703 694 687 684 683 681 680 679 677 673 668 663 660 659 655 651 649 646 644 640 638 633 631 629 626 625 622 619 618 616
723 728 730 732 733 731 729 728 730 731 734 733 735 741 745 741 734 727 718 723 722 704 699 691 685 681 679 675 671 672 670 667 663 662 658 654 650 647 643 640 638 633 630 627 626 622 618 617 616 615 613 610 610 608
720 722 722 725 725 722 721 720 725 725 726 732 732 736 732 730 722 715 721 709 694 684 678 676 672 668 667 664 664 661 658 655 652 649 645 641 637 634 630 626 624 621 616 613 613 611 608 605 605 604 603 602 601 600
712 712 711 710 709 709 714 713 715 720 722 728 735 729 723 718 717 723 711 698 676 670 668 663 661 662 659 658 656 649 644 641 639 636 632 629 625 620 617 612 609 606 603 601 601 598 596 594 593 593 593 593 592 593
703 700 701 697 700 708 707 708 710 715 716 723 717 719 714 722 723 716 708 682 665 658 654 652 652 652 651 645 640 635 631 631 627 622 619 617 611 606 602 599 594 592 593 591 587 585 584 584 583 583 583 584 584 585
689 689 687 687 694 699 705 713 716 714 723 729 712 714 724 723 714 689 683 652 650 649 645 644 642 640 638 633 630 625 619 616 614 610 605 605 601 597 591 586 580 575 580 579 577 576 574 574 573 572 573 574 575 577
678 683 683 682 686 690 695 696 694 700 702 702 701 714 709 688 687 671 649 644 642 634 631 630 629 627 623 618 613 609 606 605 603 597 592 591 589 586 584 578 571 567 569 568 567 565 564 564 563 563 564 566 567 569
668 674 677 680 686 691 695 702 706 702 692 687 695 703 691 682 663 644 639 628 625 622 621 618 616 613 610 606 603 600 597 595 592 588 583 578 576 573 570 567 564 561 558 557 555 554 554 555 555 556 556 558 560 562
665 666 669 675 683 689 688 684 683 673 666 673 677 670 662 646 633 629 623 620 618 615 614 610 605 604 599 596 593 591 589 587 585 579 574 568 565 565 564 561 557 553 551 548 544 542 543 546 547 548 550 552 554 556
659 658 669 675 675 673 666 665 662 658 657 654 653 646 637 629 621 619 616 612 610 606 603 601 599 598 594 590 585 582 581 579 577 576 571 567 564 561 558 554 551 547 545 541 538 535 536 538 541 544 546 548 550 553
650 660 669 666 664 660 656 658 658 657 656 654 649 646 627 616 610 609 606 604 603 602 601 599 597 595 592 589 586 582 577 575 573 571 569 566 562 557 553 549 546 543 540 537 534 531 531 533 535 538 541 545 548 551
651 649 653 666 661 659 661 662 662 661 653 655 629 626 618 617 609 603 606 605 604 603 602 600 596 591 589 586 583 580 578 573 570 566 563 560 556 552 548 545 543 540 537 534 531 530 530 531 534 537 540 544 547 551
661 668 671 662 657 656 660 656 658 657 652 647 629 622 617 615 612 607 608 607 607 606 602 599 594 588 584 580 577 574 572 569 566 562 559 556 553 550 547 544 542 539 537 534 533 532 533 534 537 539 542 546 550 554